Weather History for Jordan, MT

Change the Weather History Date:

Tuesday, June 26, 2012

  Actual Average Record
Temperature  
Mean Temperature 81 °F 66 °F  
Max Temperature 104 °F 81 °F 108 °F (1988)
Min Temperature 57 °F 51 °F 37 °F (1952)
Degree Days  
Heating Degree Days 0 2  
Month to date heating degree days 74 117  
Since 1 June heating degree days 74 117  
Since 1 July heating degree days 6808 8238  
Cooling Degree Days 16 3  
Month to date cooling degree days 85 38  
Year to date cooling degree days 95 44  
Since 1 June cooling degree days 85 38  
Growing Degree Days 33 (Base 50)    
Moisture  
Dew Point 47 °F    
Average Humidity 42    
Maximum Humidity 78    
Minimum Humidity 6    
Precipitation  
Precipitation 0.00 in 0.07 in 0.95 in (1975)
Month to date precipitation 1.35 2.26  
Year to date precipitation 4.75 6.63  
Snow  
Snow 0.00 in - - ()
Month to date snowfall 0.0  
Since 1 June snowfall 0.0  
Since 1 July snowfall 0.0  
Snow Depth 0.00 in    
Sea Level Pressure  
Sea Level Pressure 29.48 in    
Wind  
Wind Speed 14 mph (WSW)    
Max Wind Speed 35 mph    
Max Gust Speed 46 mph    
T = Trace of Precipitation, MM = Missing Value Source: NWS Daily Summary

Daily Weather History Graph

Daily Weather History Graph

Search for Another Location

Airport:

Trip Planner

Search our weather history database for the weather conditions in past years. The results will help you decide how hot, cold, wet, or windy it might be!

Date:

Astronomy

Jun. 26, 2012 Rise Set
Actual Time 5:13 AM MDT 9:08 PM MDT
Civil Twilight 4:32 AM MDT 9:48 PM MDT
Nautical Twilight 3:37 AM MDT 10:43 PM MDT
Astronomical Twilight 2:11 AM MDT 12:08 AM MDT
Moon 1:05 PM MDT (6/26) 12:08 AM MDT (6/26)
Length of Visible Light 17h 15m
Length of Day
15h 55m
Waxing Crescent, 46% of the Moon is Illuminated
Jun 26
Waxing Crescent
Jun 26
First Quarter
Jul 3
Full
Jul 10
Last Quarter
Jul 18
New

Hourly Weather History & Observations

Time (MDT) Temp. Heat Index Dew Point Humidity Pressure Visibility Wind Dir Wind Speed Gust Speed Precip Events Conditions
12:48 AM 78.1 °F - 55.0 °F 45% 29.53 in - South 11.5 mph 21.9 mph N/A   Unknown
1:48 AM 79.0 °F - 57.0 °F 47% 29.52 in - South 15.0 mph - N/A   Unknown
2:48 AM 77.0 °F - 57.0 °F 50% 29.51 in - South 6.9 mph - N/A   Unknown
3:48 AM 75.9 °F - 57.9 °F 54% 29.51 in - West 4.6 mph - N/A   Unknown
4:48 AM 69.1 °F - 57.9 °F 68% 29.49 in - North 5.8 mph - N/A   Unknown
5:48 AM 64.9 °F - 57.0 °F 75% 29.51 in - SW 3.5 mph - N/A   Unknown
6:48 AM 71.1 °F - 59.0 °F 66% 29.52 in - East 4.6 mph - N/A   Unknown
7:48 AM 77.0 °F - 57.9 °F 52% 29.51 in - SE 10.4 mph - N/A   Unknown
8:48 AM 84.9 °F 83.7 °F 55.9 °F 37% 29.47 in - ESE 11.5 mph - N/A   Unknown
9:48 AM 89.1 °F 87.1 °F 55.0 °F 31% 29.45 in - SSE 13.8 mph - N/A   Unknown
10:48 AM 91.9 °F 89.5 °F 53.1 °F 27% 29.42 in - SE 9.2 mph - N/A   Unknown
11:48 AM 93.9 °F 91.7 °F 54.0 °F 26% 29.40 in - SSE 6.9 mph 18.4 mph N/A   Unknown
12:48 PM 97.0 °F 94.6 °F 54.0 °F 23% 29.39 in - SW 5.8 mph - N/A   Unknown
1:48 PM 100.9 °F - 45.0 °F 15% 29.37 in - West 12.7 mph 24.2 mph N/A   Unknown
2:48 PM 100.9 °F - 44.1 °F 14% 29.36 in - West 13.8 mph 18.4 mph N/A   Unknown
3:48 PM 102.9 °F - 46.0 °F 15% 29.34 in - West 15.0 mph 21.9 mph N/A   Unknown
4:48 PM 102.9 °F - 30.9 °F 8% 29.34 in - West 27.6 mph 35.7 mph N/A   Unknown
5:48 PM 99.0 °F - 19.9 °F 6% 29.38 in - West 31.1 mph 39.1 mph N/A   Unknown
6:48 PM 88.0 °F - 48.9 °F 26% 29.45 in - NW 26.5 mph 42.6 mph N/A   Unknown
7:48 PM 81.0 °F - 39.0 °F 22% 29.52 in - WNW 25.3 mph 35.7 mph N/A   Unknown
8:48 PM 75.0 °F - 33.1 °F 22% 29.57 in - WNW 13.8 mph - N/A   Unknown
9:48 PM 72.0 °F - 33.1 °F 24% 29.63 in - WNW 18.4 mph 26.5 mph N/A   Unknown
10:48 PM 69.1 °F - 32.0 °F 25% 29.67 in - WNW 18.4 mph 29.9 mph N/A   Unknown
11:48 PM 66.9 °F - 26.1 °F 21% 29.68 in - WNW 16.1 mph 21.9 mph N/A   Unknown